Other Public Products
Issued by NWS Charleston, SC

Current Version | Previous Version | Graphics & Text | Print | Product List | Glossary On
Versions: 1 2 3 4 5 6 7 8 9 10 11 12 13 14 15 16 17 18 19 20 21 22 23 24 25 26 27 28 29 30 31 32 33 34 35 36 37 38 39 40 41 42 43 44 45 46 47 48 49 50
650
FPUS82 KCHS 181823
OPUCHS

TEST...KCHS/KSAV Gateway Observations...TEST
National Weather Service Charleston SC
200 PM EDT MON SEP 18 2017

NOTE: "fair" indicates few or no clouds below 12,000 feet with no
significant weather and/or obstructions to visibility.

SCZ050-WAZ558-NCZ071-TXZ119-213-PAZ071-DCZ001-FLZ074-172-MI076-
NYZ176-178-MAZ016-IL014-TNZ027-NJZ106-GAZ044-MD014-181900-

...Gateway Observations for Charleston International...

CITY           SKY/WX    TMP DP  RH WIND       PRES   REMARKS
Chas Airport   MOSUNNY   86  66  51 N9        29.97F
6HR MIN TEMP:  71; 6HR MAX TEMP:  86;

Seattle        MOSUNNY   55  50  83 S10       29.79R
6HR MIN TEMP:  50; 6HR MAX TEMP:  55; 6HR PCP:  0.01;

Charlotte      PTSUNNY   84  66  54 NE7       30.05F
6HR MIN TEMP:  71; 6HR MAX TEMP:  84;

Dallas DFW     MOSUNNY   89  64  43 VRB3      30.01F HX  90
6HR MIN TEMP:  73; 6HR MAX TEMP:  89;

Dallas Love    MOSUNNY   90  63  40 CALM      30.02F HX  91
6HR MIN TEMP:  74; 6HR MAX TEMP:  90;

Philladelphia  MOSUNNY   80  68  66 NE12      30.07F
6HR MIN TEMP:  70; 6HR MAX TEMP:  79;

Wash National  CLOUDY    75  68  78 NE12      30.07F
6HR MIN TEMP:  71; 6HR MAX TEMP:  77;

Baltimore      LGT RAIN  72  69  90 E6        30.08F FOG
6HR MIN TEMP:  69; 6HR MAX TEMP:  73; 6HR PCP: TRACE;

Miami          MOSUNNY   89  72  56 W8        29.92F HX  96
6HR MIN TEMP:  80; 6HR MAX TEMP:  90;

Detroit        CLOUDY    73  68  84 N7        30.08F
6HR MIN TEMP:  68; 6HR MAX TEMP:  75;

Newark         CLOUDY    74  66  76 NE13      30.10F
6HR MIN TEMP:  69; 6HR MAX TEMP:  74; 6HR PCP: TRACE;

Laguardia      CLOUDY    71  66  84 NE14      30.10F
6HR MIN TEMP:  68; 6HR MAX TEMP:  73; 6HR PCP: TRACE;

J F K          CLOUDY    75  67  76 NE14      30.10F
6HR MIN TEMP:  68; 6HR MAX TEMP:  76; 6HR PCP: TRACE;

Boston Logan   DRZL/FOG  65  65 100 E9        30.18S VSB 1/2
6HR MIN TEMP:  65; 6HR MAX TEMP:  68; 6HR PCP: TRACE;

Ft. Lauderdale MOSUNNY   88  73  61 W7        29.90F HX  95
6HR MIN TEMP:  77; 6HR MAX TEMP:  88;

Chicago O`Hare MOSUNNY   76  54  46 E9        30.08F
6HR MIN TEMP:  58; 6HR MAX TEMP:  76;

Chicago Midway MOSUNNY   74  55  51 E12       30.08F
6HR MIN TEMP:  61; 6HR MAX TEMP:  76;

Houston Bush   TSTM      87  74  64 SW16G22   30.00F HX  95
6HR MIN TEMP:  75; 6HR MAX TEMP:  91; 6HR PCP:  0.10;

Houston Hobby  LGT RAIN  88  75  65 S12       30.00S HX  97
6HR MIN TEMP:  80; 6HR MAX TEMP:  91; 6HR PCP: TRACE;

Nashville      MOSUNNY   88  63  43 CALM      30.06F
6HR MIN TEMP:  66; 6HR MAX TEMP:  89;

Atlanta        MOSUNNY   86  63  45 NW5       30.06F
6HR MIN TEMP:  68; 6HR MAX TEMP:  86;


$$

GAZ044-118-TXZ119-213-NCZ071-DCZ001-MDZ014-506-PAZ021-071-NJZ106-
NYZ176-178-MAZ106-OHZ011-021-055-MIZ076-KYZ091-ILZ014-INZ047-
MNZ060-ONZ431-181900-

...Gateway Observations for Savannah International...

CITY           SKY/WX    TMP DP  RH WIND       PRES   REMARKS
Savannah Arpt  MOSUNNY   88  65  46 N13       29.99F HX  90
6HR MIN TEMP:  69; 6HR MAX TEMP:  89;

Atlanta        MOSUNNY   86  63  45 NW5       30.06F
6HR MIN TEMP:  68; 6HR MAX TEMP:  86;

Charlotte      PTSUNNY   84  66  54 NE7       30.05F
6HR MIN TEMP:  71; 6HR MAX TEMP:  84;

Dallas DFW     MOSUNNY   89  64  43 VRB3      30.01F HX  90
6HR MIN TEMP:  73; 6HR MAX TEMP:  89;

Houston Bush   TSTM      87  74  64 SW16G22   30.00F HX  95
6HR MIN TEMP:  75; 6HR MAX TEMP:  91; 6HR PCP:  0.10;

Wash National  CLOUDY    75  68  78 NE12      30.07F
6HR MIN TEMP:  71; 6HR MAX TEMP:  77;

Wash Dulles    MOSUNNY   78  66  66 E8        30.07F
6HR MIN TEMP:  67; 6HR MAX TEMP:  78;

Baltimore      LGT RAIN  72  69  90 E6        30.08F FOG
6HR MIN TEMP:  69; 6HR MAX TEMP:  73; 6HR PCP: TRACE;

Philadelphia   MOSUNNY   80  68  66 NE12      30.07F
6HR MIN TEMP:  70; 6HR MAX TEMP:  79;

Newark         CLOUDY    74  66  76 NE13      30.10F
6HR MIN TEMP:  69; 6HR MAX TEMP:  74; 6HR PCP: TRACE;

Laguardia      CLOUDY    71  66  84 NE14      30.10F
6HR MIN TEMP:  68; 6HR MAX TEMP:  73; 6HR PCP: TRACE;

J F K          CLOUDY    75  67  76 NE14      30.10F
6HR MIN TEMP:  68; 6HR MAX TEMP:  76; 6HR PCP: TRACE;

Boston         DRZL/FOG  65  65 100 E9        30.18S VSB 1/2
6HR MIN TEMP:  65; 6HR MAX TEMP:  68; 6HR PCP: TRACE;

Pittsburg      PTSUNNY   81  63  54 NE3       30.09F
6HR MIN TEMP:  62; 6HR MAX TEMP:  81;

Akron          PTSUNNY   84  60  44 VRB3      30.08F
6HR MIN TEMP:  63; 6HR MAX TEMP:  85;

Cleveland      CLOUDY    87  61  41 W8        30.08F
6HR MIN TEMP:  66; 6HR MAX TEMP:  87;

Cincinnati     PTSUNNY   83  67  58 W3        30.07F
6HR MIN TEMP:  66; 6HR MAX TEMP:  84;

Columbus       CLOUDY    81  60  49 SW5       30.06F
Detroit        CLOUDY    73  68  84 N7        30.08F
6HR MIN TEMP:  68; 6HR MAX TEMP:  75;

Chicago O`Hare MOSUNNY   76  54  46 E9        30.08F
6HR MIN TEMP:  58; 6HR MAX TEMP:  76;

Minneapolis    LGT RAIN  57  54  89 SE12      30.06S
6HR MIN TEMP:  55; 6HR MAX TEMP:  58; 6HR PCP:  0.17;

Indianapolis   PTSUNNY   79  69  71 CALM      30.05F
6HR MIN TEMP:  69; 6HR MAX TEMP:  79; 6HR PCP:  0.09;

Toronto Canada PTSUNNY   77  64  65 SE9       30.05F

$$




USA.gov is the U.S. government's official web portal to all federal, state and local government web resources and services.